Weather History for Stevensville, MD

Change the Weather History Date:

Wednesday, January 30, 2013

  Actual Average (KESN) Record (KESN)
Temperature  
Mean Temperature 54 °F -  
Max Temperature 64 °F 46 °F 69 °F (1975)
Min Temperature 44 °F 27 °F 7 °F (2014)
Degree Days  
Heating Degree Days 11    
Growing Degree Days 4 (Base 50)    
Moisture  
Dew Point 53 °F    
Average Humidity 88    
Maximum Humidity 100    
Minimum Humidity 72    
Precipitation  
Precipitation 0.00 in - - ()
Sea Level Pressure  
Sea Level Pressure 29.72 in    
Wind  
Wind Speed 13 mph (SSE)    
Max Wind Speed 24 mph    
Max Gust Speed 31 mph    
Visibility 9 miles    
Events      
Averages and records for this station are not official NWS values.
T = Trace of Precipitation, MM = Missing Value Source: NWS Daily Summary

Daily Weather History Graph

Daily Weather History Graph

Search for Another Location

Airport:

Trip Planner

Search our weather history database for the weather conditions in past years. The results will help you decide how hot, cold, wet, or windy it might be!

Date:

Astronomy

Jan. 30, 2013 Rise Set
Actual Time 7:13 AM EST 5:24 PM EST
Civil Twilight 6:44 AM EST 5:52 PM EST
Nautical Twilight 6:12 AM EST 6:24 PM EST
Astronomical Twilight 5:41 AM EST 6:56 PM EST
Moon 9:18 PM EST (1/30) 8:42 AM EST (1/30)
Length of Visible Light 11h 07m
Length of Day
10h 11m
Waning Gibbous, 88% of the Moon is Illuminated
Jan 30
Waning Gibbous
Feb 3
Last Quarter
Feb 10
New
Feb 17
First Quarter
Feb 25
Full

Hourly Weather History & Observations

Time (EST) Temp. Windchill Dew Point Humidity Pressure Visibility Wind Dir Wind Speed Gust Speed Precip Events Conditions
12:00 AM 48.2 °F - 46.4 °F 93% 30.01 in 7.0 mi SSE 11.5 mph - N/A   Clear
12:22 AM 46.4 °F 41.9 °F 44.6 °F 93% 30.00 in 5.0 mi SSE 9.2 mph - N/A   Clear
12:43 AM 46.4 °F 42.4 °F 44.6 °F 93% 29.99 in 5.0 mi SE 8.1 mph - N/A   Clear
1:04 AM 44.6 °F 40.2 °F 44.6 °F 100% 29.98 in 5.0 mi SE 8.1 mph - N/A   Clear
1:25 AM 44.6 °F 39.7 °F 44.6 °F 100% 29.97 in 5.0 mi SSE 9.2 mph - N/A   Clear
1:47 AM 48.2 °F - 46.4 °F 93% 29.97 in 7.0 mi SSE 10.4 mph - N/A   Clear
2:08 AM 50.0 °F - 46.4 °F 87% 29.96 in 7.0 mi SSE 10.4 mph - N/A   Clear
2:29 AM 48.2 °F - 46.4 °F 93% 29.95 in 7.0 mi SSE 9.2 mph - N/A   Clear
2:51 AM 51.8 °F - 50.0 °F 94% 29.93 in 7.0 mi SSE 11.5 mph - N/A   Scattered Clouds
3:12 AM 51.8 °F - 50.0 °F 94% 29.93 in 7.0 mi SSE 10.4 mph - N/A   Scattered Clouds
3:33 AM 53.6 °F - 50.0 °F 88% 29.92 in 7.0 mi SSE 10.4 mph 17.3 mph N/A   Mostly Cloudy
3:55 AM 53.6 °F - 51.8 °F 94% 29.91 in 7.0 mi SSE 11.5 mph - N/A   Scattered Clouds
4:16 AM 51.8 °F - 50.0 °F 94% 29.90 in 7.0 mi SSE 10.4 mph - N/A   Clear
4:59 AM 53.6 °F - 51.8 °F 94% 29.89 in 10.0 mi SSE 11.5 mph 17.3 mph N/A   Clear
5:20 AM 55.4 °F - 51.8 °F 88% 29.88 in 10.0 mi SSE 12.7 mph 17.3 mph N/A   Clear
5:41 AM 55.4 °F - 51.8 °F 88% 29.88 in 10.0 mi SSE 9.2 mph - N/A   Clear
6:02 AM 55.4 °F - 53.6 °F 94% 29.87 in 10.0 mi SSE 10.4 mph - N/A   Scattered Clouds
6:24 AM 53.6 °F - 51.8 °F 94% 29.86 in 10.0 mi SSE 10.4 mph - N/A   Clear
6:45 AM 53.6 °F - 51.8 °F 94% 29.85 in 10.0 mi SSE 12.7 mph - N/A   Clear
7:06 AM 53.6 °F - 51.8 °F 94% 29.84 in 10.0 mi SSE 13.8 mph - N/A   Clear
7:27 AM 53.6 °F - 51.8 °F 94% 29.84 in 10.0 mi SSE 15.0 mph 20.7 mph N/A   Clear
7:49 AM 55.4 °F - 53.6 °F 94% 29.85 in 10.0 mi SSE 11.5 mph 16.1 mph N/A   Clear
8:10 AM 55.4 °F - 55.4 °F 100% 29.85 in 10.0 mi SSE 11.5 mph 16.1 mph N/A   Mostly Cloudy
8:31 AM 55.4 °F - 55.4 °F 100% 29.84 in 10.0 mi South 16.1 mph 20.7 mph N/A   Overcast
8:52 AM 55.4 °F - 55.4 °F 100% 29.83 in 10.0 mi South 17.3 mph 23.0 mph N/A   Overcast
9:14 AM 55.4 °F - 55.4 °F 100% 29.82 in 10.0 mi SSE 13.8 mph 19.6 mph N/A   Overcast
9:34 AM 55.4 °F - 55.4 °F 100% 29.81 in 10.0 mi SSE 10.4 mph 17.3 mph N/A   Overcast
9:56 AM 55.4 °F - 55.4 °F 100% 29.81 in 10.0 mi South 15.0 mph 20.7 mph N/A   Overcast
10:17 AM 59.0 °F - 55.4 °F 88% 29.81 in 10.0 mi SSE 15.0 mph 20.7 mph N/A   Mostly Cloudy
10:39 AM 59.0 °F - 55.4 °F 88% 29.79 in 10.0 mi SSE 16.1 mph 21.9 mph N/A   Scattered Clouds
11:00 AM 60.8 °F - 57.2 °F 88% 29.77 in 10.0 mi South 18.4 mph 26.5 mph N/A   Clear
11:20 AM 60.8 °F - 57.2 °F 88% 29.76 in 10.0 mi SSE 15.0 mph 21.9 mph N/A   Clear
11:42 AM 60.8 °F - 57.2 °F 88% 29.74 in 10.0 mi South 18.4 mph 24.2 mph N/A   Clear
12:03 PM 60.8 °F - 57.2 °F 88% 29.73 in 10.0 mi South 17.3 mph - N/A   Clear
12:25 PM 60.8 °F - 55.4 °F 82% 29.72 in 10.0 mi South 16.1 mph 21.9 mph N/A   Mostly Cloudy
12:45 PM 62.6 °F - 57.2 °F 82% 29.69 in 10.0 mi South 17.3 mph 26.5 mph N/A   Mostly Cloudy
1:07 PM 62.6 °F - 55.4 °F 77% 29.68 in 10.0 mi South 18.4 mph 26.5 mph N/A   Mostly Cloudy
1:28 PM 62.6 °F - 57.2 °F 82% 29.67 in 10.0 mi South 20.7 mph 26.5 mph N/A   Mostly Cloudy
1:50 PM 62.6 °F - 57.2 °F 82% 29.66 in 10.0 mi South 19.6 mph 25.3 mph N/A   Overcast
2:11 PM 62.6 °F - 55.4 °F 77% 29.66 in 10.0 mi South 17.3 mph 27.6 mph N/A   Overcast
2:32 PM 62.6 °F - 55.4 °F 77% 29.66 in 10.0 mi South 18.4 mph 26.5 mph N/A   Overcast
2:53 PM 62.6 °F - 55.4 °F 77% 29.66 in 10.0 mi South 15.0 mph 25.3 mph N/A   Mostly Cloudy
3:14 PM 62.6 °F - 55.4 °F 77% 29.63 in 10.0 mi SSE 17.3 mph 21.9 mph N/A   Scattered Clouds
3:57 PM 64.4 °F - 55.4 °F 73% 29.63 in 10.0 mi South 16.1 mph 24.2 mph N/A   Scattered Clouds
4:18 PM 64.4 °F - 55.4 °F 73% 29.62 in 10.0 mi South 17.3 mph 23.0 mph N/A   Scattered Clouds
5:01 PM 62.6 °F - 55.4 °F 77% 29.61 in 10.0 mi South 13.8 mph 20.7 mph N/A   Mostly Cloudy
5:22 PM 62.6 °F - 55.4 °F 77% 29.60 in 10.0 mi South 13.8 mph 19.6 mph N/A   Mostly Cloudy
5:43 PM 62.6 °F - 53.6 °F 72% 29.59 in 10.0 mi SSE 12.7 mph 19.6 mph N/A   Scattered Clouds
6:04 PM 62.6 °F - 55.4 °F 77% 29.59 in 10.0 mi South 6.9 mph 17.3 mph N/A   Scattered Clouds
6:26 PM 60.8 °F - 53.6 °F 77% 29.57 in 10.0 mi SSE 13.8 mph 18.4 mph N/A   Scattered Clouds
6:47 PM 60.8 °F - 53.6 °F 77% 29.55 in 10.0 mi SSE 15.0 mph 20.7 mph N/A   Scattered Clouds
7:08 PM 60.8 °F - 53.6 °F 77% 29.54 in 10.0 mi SSE 17.3 mph 21.9 mph N/A   Scattered Clouds
7:29 PM 60.8 °F - 55.4 °F 82% 29.51 in 10.0 mi SSE 19.6 mph 26.5 mph N/A   Scattered Clouds
7:50 PM 60.8 °F - 55.4 °F 82% 29.49 in 10.0 mi SSE 16.1 mph 23.0 mph N/A   Clear
8:12 PM 60.8 °F - 55.4 °F 82% 29.48 in 10.0 mi SSE 19.6 mph 26.5 mph N/A   Scattered Clouds
8:33 PM 60.8 °F - 55.4 °F 82% 29.48 in 10.0 mi SSE 19.6 mph 28.8 mph N/A   Scattered Clouds
8:54 PM 60.8 °F - 55.4 °F 82% 29.46 in 10.0 mi SSE 16.1 mph 21.9 mph N/A   Clear
9:15 PM 60.8 °F - 55.4 °F 82% 29.46 in 10.0 mi SSE 13.8 mph 19.6 mph N/A   Scattered Clouds
9:37 PM 55.4 °F - 53.6 °F 94% 29.48 in 10.0 mi SSW 8.1 mph 19.6 mph N/A   Overcast
9:58 PM 55.4 °F - 51.8 °F 88% 29.46 in 10.0 mi WSW 9.2 mph 16.1 mph N/A   Overcast
10:19 PM 53.6 °F - 53.6 °F 100% 29.42 in 7.0 mi Calm Calm - N/A   Overcast
10:40 PM 57.2 °F - 55.4 °F 94% 29.39 in 7.0 mi SSE 11.5 mph 21.9 mph N/A   Overcast
11:02 PM 57.2 °F - 55.4 °F 94% 29.37 in 5.0 mi SSE 17.3 mph 21.9 mph N/A   Overcast
11:23 PM 57.2 °F - 55.4 °F 94% 29.34 in 10.0 mi SSE 20.7 mph 26.5 mph N/A   Mostly Cloudy
11:44 PM 59.0 °F - 55.4 °F 88% 29.30 in 7.0 mi SSE 24.2 mph 31.1 mph N/A   Mostly Cloudy